Regional Weather Roundup
Issued by NWS Charleston, WV

Home | Current Version | Previous Version | Graphics & Text | Print | Product List | Glossary On
Versions: 1 2 3 4 5 6 7 8 9 10 11 12 13 14 15 16 17 18 19 20 21 22 23 24 25 26 27
000
ASUS41 KRLX 211110
RWRRLX
West Virginia Regional Weather Roundup
National Weather Service Charleston WV
700 AM EDT THU SEP 21 2017

Note: "fair" indicates few or no clouds below 12,000 feet with no
significant weather and/or obstructions to visibility.

WVZ003-211200-
Northern Panhandle of West Virginia

CITY           SKY/WX    TMP DP  RH WIND       PRES   REMARKS
WHEELING       FOG       62  61  96 CALM      30.11R VSB 1/4
$$

WVZ009-211200-
Northwest West Virginia

CITY           SKY/WX    TMP DP  RH WIND       PRES   REMARKS
PARKERSBURG    FOG       62  62 100 CALM      30.12S VSB 1/2
$$

WVZ006-211200-
Western West Virginia

CITY           SKY/WX    TMP DP  RH WIND       PRES   REMARKS
HUNTINGTON     CLEAR     64  62  93 E3        30.09R FOG
$$

WVZ015-211200-
West Central West Virginia

CITY           SKY/WX    TMP DP  RH WIND       PRES   REMARKS
CHARLESTON     FOG       62  61  96 CALM      30.11R VSB 1/4
$$

WVZ022-031-211200-
North Central West Virginia

CITY           SKY/WX    TMP DP  RH WIND       PRES   REMARKS
CLARKSBURG     FOG       61  59  93 CALM      30.13R VSB 1/4
MORGANTOWN     CLEAR     62  60  93 CALM      30.13S FOG
$$

WVZ025-035-042-045-211200-
Southern West Virginia

CITY           SKY/WX    TMP DP  RH WIND       PRES   REMARKS
BECKLEY        FOG       58  58 100 CALM      30.17R VSB 1
LOGAN          FOG       63  63 100 CALM      30.13R VSB<1/4
BLUEFIELD      CLEAR     60  58  92 W5        30.18S
LEWISBURG      FOG       57  57  99 CALM      30.17R VSB 1/4
$$

WVZ047-211200-
Northern Mountains of West Virginia

CITY           SKY/WX    TMP DP  RH WIND       PRES   REMARKS
ELKINS         FOG       61  59  93 CALM      30.18R VSB 1/4
$$

WVZ052-211200-
Eastern Panhandle of West Virginia

CITY           SKY/WX    TMP DP  RH WIND       PRES   REMARKS
MARTINSBURG    CLEAR     56  55  97 CALM      30.08R FOG
PETERSBURG     FOG       60  60  99 CALM      30.13R VSB 3/4
$$




USA.gov is the U.S. government's official web portal to all federal, state and local government web resources and services.